Watonga, OK

9:28 AM CDT on October 01, 2016 (GMT -0500)
Watonga

Weather History for KJWG - May, 2014

Change the Weather History Date:

Saturday, May 10, 2014

  Actual Average Record
Temperature  
Mean Temperature 74 °F -  
Max Temperature 90 °F 78 °F 100 °F (1963)
Min Temperature 57 °F 54 °F 39 °F (1981)
Cooling Degree Days 8    
Growing Degree Days 24 (Base 50)    
Moisture  
Dew Point 60 °F    
Average Humidity 60    
Maximum Humidity 89    
Minimum Humidity 37    
Precipitation  
Precipitation 0.00 in - - ()
Sea Level Pressure  
Sea Level Pressure 29.75 in    
Wind  
Wind Speed 11 mph (SSE)    
Max Wind Speed 24 mph    
Max Gust Speed 34 mph    
Visibility 10 miles    
Events      
Averages and records for this station are not official NWS values.
T = Trace of Precipitation, MM = Missing Value Source: NWS Daily Summary

Daily Weather History Graph

Daily Weather History Graph

Search for Another Location

Airport or City:

Trip Planner

Search our weather history database for the weather conditions in past years. The results will help you decide how hot, cold, wet, or windy it might be!

Date:

Astronomy

May. 10, 2014 Rise Set
Actual Time 6:32 AM CDT 8:28 PM CDT
Civil Twilight 6:04 AM CDT 8:56 PM CDT
Nautical Twilight 5:30 AM CDT 9:30 PM CDT
Astronomical Twilight 4:53 AM CDT 10:07 PM CDT
Moon 4:33 PM CDT (5/10) 3:57 AM CDT (5/10)
Length of Visible Light 14h 52m
Length of Day
13h 55m
Waxing Gibbous, 82% of the Moon is Illuminated
May 10
Waxing Gibbous
May 14
Full
May 21
Last Quarter
May 28
New
Jun 5
First Quarter

Hourly Weather History & Observations

Time (CDT) Temp. Heat Index Dew Point Humidity Pressure Visibility Wind Dir Wind Speed Gust Speed Precip Events Conditions
12:15 AM 62.4 °F - 52.7 °F 70% 29.85 in 10.0 mi SSE 4.6 mph - N/A   Clear
12:35 AM 61.2 °F - 52.9 °F 74% 29.85 in 10.0 mi SE 4.6 mph - N/A   Clear
12:55 AM 61.7 °F - 53.6 °F 75% 29.84 in 10.0 mi ESE 5.8 mph - N/A   Clear
1:15 AM 61.3 °F - 54.0 °F 77% 29.84 in 10.0 mi SE 4.6 mph - N/A   Clear
1:35 AM 61.9 °F - 54.1 °F 76% 29.82 in 10.0 mi ESE 4.6 mph - N/A   Clear
1:55 AM 62.6 °F - 54.1 °F 74% 29.81 in 10.0 mi SE 5.8 mph - N/A   Clear
2:15 AM 61.0 °F - 54.0 °F 78% 29.82 in 10.0 mi SSE 5.8 mph - N/A   Clear
2:35 AM 60.4 °F - 54.9 °F 82% 29.81 in 10.0 mi SE 9.2 mph - N/A   Clear
2:55 AM 60.3 °F - 54.5 °F 81% 29.80 in 10.0 mi SE 4.6 mph - N/A   Clear
3:15 AM 58.3 °F - 54.0 °F 86% 29.80 in 10.0 mi Calm Calm - N/A   Clear
3:35 AM 57.7 °F - 53.8 °F 87% 29.79 in 10.0 mi SSE 4.6 mph - N/A   Clear
3:55 AM 57.2 °F - 53.6 °F 88% 29.79 in 10.0 mi South 3.5 mph - N/A   Clear
4:15 AM 60.8 °F - 52.9 °F 75% 29.79 in 10.0 mi SSE 8.1 mph - N/A   Clear
4:35 AM 60.4 °F - 52.2 °F 74% 29.78 in 10.0 mi SSE 6.9 mph - N/A   Clear
4:55 AM 59.9 °F - 52.2 °F 76% 29.78 in 10.0 mi SSE 6.9 mph - N/A   Clear
5:15 AM 61.0 °F - 53.4 °F 76% 29.78 in 10.0 mi SSE 8.1 mph - N/A   Clear
5:35 AM 60.3 °F - 54.0 °F 80% 29.78 in 10.0 mi SSE 6.9 mph - N/A   Clear
5:55 AM 60.8 °F - 55.4 °F 82% 29.78 in 10.0 mi SSE 6.9 mph - N/A   Clear
6:15 AM 60.8 °F - 57.2 °F 88% 29.78 in 10.0 mi SSE 5.8 mph - N/A   Clear
6:35 AM 62.1 °F - 58.8 °F 89% 29.79 in 10.0 mi SSE 5.8 mph - N/A   Clear
6:55 AM 63.0 °F - 58.6 °F 86% 29.79 in 10.0 mi South 6.9 mph - N/A   Clear
7:15 AM 63.9 °F - 58.5 °F 83% 29.80 in 10.0 mi South 10.4 mph - N/A   Clear
7:35 AM 65.1 °F - 58.3 °F 78% 29.80 in 10.0 mi South 10.4 mph - N/A   Clear
7:55 AM 66.6 °F - 58.1 °F 74% 29.80 in 10.0 mi South 11.5 mph 17.3 mph N/A   Clear
8:15 AM 68.2 °F - 57.9 °F 70% 29.80 in 10.0 mi SSW 15.0 mph 23.0 mph N/A   Clear
8:55 AM 72.5 °F - 58.1 °F 60% 29.80 in 10.0 mi SSW 17.3 mph 27.6 mph N/A   Clear
9:15 AM 74.5 °F - 58.3 °F 57% 29.80 in 10.0 mi SSW 21.9 mph 28.8 mph N/A   Clear
9:35 AM 76.1 °F - 58.5 °F 54% 29.80 in 10.0 mi SSW 23.0 mph 29.9 mph N/A   Clear
9:55 AM 78.3 °F - 58.6 °F 51% 29.79 in 10.0 mi SW 20.7 mph 26.5 mph N/A   Clear
10:15 AM 80.1 °F 80.8 °F 59.5 °F 49% 29.79 in 10.0 mi SSW 23.0 mph 27.6 mph N/A   Clear
10:35 AM 81.7 °F 82.3 °F 60.8 °F 49% 29.79 in 10.0 mi SSW 18.4 mph 31.1 mph N/A   Clear
10:55 AM 82.6 °F 83.1 °F 61.2 °F 48% 29.79 in 10.0 mi SSW 19.6 mph 29.9 mph N/A   Clear
11:15 AM 84.0 °F 84.0 °F 59.7 °F 44% 29.79 in 10.0 mi SSW 24.2 mph 28.8 mph N/A   Clear
11:35 AM 84.7 °F 84.6 °F 59.9 °F 43% 29.78 in 10.0 mi South 19.6 mph 31.1 mph N/A   Clear
11:55 AM 85.3 °F 85.4 °F 61.0 °F 44% 29.77 in 10.0 mi SSW 24.2 mph 31.1 mph N/A   Clear
12:15 PM 85.8 °F 86.3 °F 62.1 °F 45% 29.77 in 10.0 mi SSW 20.7 mph 31.1 mph N/A   Clear
12:35 PM 87.1 °F 87.5 °F 62.1 °F 43% 29.76 in 10.0 mi SSW 19.6 mph 28.8 mph N/A   Clear
12:55 PM 87.8 °F 87.9 °F 61.7 °F 41% 29.75 in 10.0 mi South 18.4 mph 32.2 mph N/A   Clear
1:15 PM 88.0 °F 87.9 °F 60.8 °F 40% 29.75 in 10.0 mi SSW 17.3 mph 34.5 mph N/A   Clear
1:35 PM 87.1 °F 88.0 °F 63.3 °F 45% 29.74 in 10.0 mi South 20.7 mph 28.8 mph N/A   Clear
1:55 PM 87.8 °F 88.8 °F 63.1 °F 44% 29.74 in 10.0 mi South 20.7 mph 27.6 mph N/A   Clear
2:15 PM 87.4 °F 88.5 °F 63.5 °F 45% 29.74 in 10.0 mi South 16.1 mph 24.2 mph N/A   Clear
2:35 PM 87.3 °F 88.0 °F 63.1 °F 44% 29.73 in 10.0 mi South 17.3 mph 25.3 mph N/A   Clear
2:55 PM 87.6 °F 88.2 °F 62.6 °F 43% 29.72 in 10.0 mi South 18.4 mph 26.5 mph N/A   Clear
3:15 PM 88.3 °F 89.2 °F 63.0 °F 43% 29.72 in 10.0 mi SSE 20.7 mph 27.6 mph N/A   Clear
3:35 PM 88.9 °F 89.4 °F 62.4 °F 41% 29.71 in 10.0 mi South 18.4 mph 27.6 mph N/A   Clear
3:55 PM 89.4 °F 89.5 °F 61.7 °F 39% 29.70 in 10.0 mi South 17.3 mph 25.3 mph N/A   Clear
4:15 PM 89.6 °F 89.5 °F 61.2 °F 38% 29.69 in 10.0 mi South 20.7 mph 27.6 mph N/A   Clear
4:35 PM 90.0 °F 90.3 °F 62.1 °F 39% 29.69 in 10.0 mi South 21.9 mph 27.6 mph N/A   Clear
4:55 PM 89.8 °F 89.4 °F 60.4 °F 37% 29.68 in 10.0 mi South 21.9 mph 31.1 mph N/A   Clear
5:15 PM 90.0 °F 89.7 °F 60.3 °F 37% 29.68 in 10.0 mi South 20.7 mph 27.6 mph N/A   Clear
5:35 PM 89.1 °F 89.0 °F 61.0 °F 39% 29.67 in 10.0 mi South 19.6 mph 27.6 mph N/A   Clear
5:55 PM 89.4 °F 89.2 °F 61.0 °F 38% 29.67 in 10.0 mi South 17.3 mph 28.8 mph N/A   Clear
6:15 PM 88.7 °F 88.6 °F 60.6 °F 39% 29.66 in 10.0 mi SSE 17.3 mph 28.8 mph N/A   Clear
6:35 PM 88.5 °F 88.3 °F 60.8 °F 39% 29.66 in 10.0 mi SSE 18.4 mph 23.0 mph N/A   Clear
6:55 PM 87.1 °F 87.2 °F 61.2 °F 42% 29.66 in 10.0 mi SSE 17.3 mph 28.8 mph N/A   Clear
7:15 PM 86.4 °F 86.5 °F 61.7 °F 43% 29.66 in 10.0 mi SSE 17.3 mph 25.3 mph N/A   Clear
7:35 PM 85.1 °F 85.4 °F 61.7 °F 45% 29.66 in 10.0 mi SE 17.3 mph 27.6 mph N/A   Clear
7:55 PM 83.5 °F 84.1 °F 61.9 °F 48% 29.66 in 10.0 mi SSE 17.3 mph 25.3 mph N/A   Clear
8:15 PM 82.4 °F 83.4 °F 62.6 °F 51% 29.66 in 10.0 mi SE 17.3 mph 27.6 mph N/A   Clear
8:35 PM 81.1 °F 82.4 °F 63.0 °F 54% 29.67 in 10.0 mi SE 18.4 mph 29.9 mph N/A   Clear
8:55 PM 79.9 °F - 63.5 °F 57% 29.67 in 10.0 mi SE 18.4 mph 26.5 mph N/A   Clear
9:15 PM 78.8 °F - 63.7 °F 60% 29.67 in 10.0 mi SSE 17.3 mph 29.9 mph N/A   Clear
9:35 PM 78.1 °F - 63.7 °F 61% 29.68 in 10.0 mi SE 18.4 mph 26.5 mph N/A   Clear
9:55 PM 77.5 °F - 64.0 °F 63% 29.68 in 10.0 mi SSE 17.3 mph 26.5 mph N/A   Clear
10:15 PM 77.0 °F - 64.4 °F 65% 29.68 in 10.0 mi SSE 17.3 mph 27.6 mph N/A   Clear
10:35 PM 76.3 °F - 64.9 °F 68% 29.69 in 10.0 mi SSE 18.4 mph 26.5 mph N/A   Clear
10:55 PM 76.1 °F - 65.7 °F 70% 29.69 in 10.0 mi SSE 18.4 mph 28.8 mph N/A   Clear
11:15 PM 75.4 °F - 66.2 °F 73% 29.69 in 10.0 mi SSE 18.4 mph 28.8 mph N/A   Clear
11:35 PM 74.8 °F - 66.6 °F 75% 29.69 in 10.0 mi SSE 16.1 mph 24.2 mph N/A   Clear
11:55 PM 74.7 °F - 67.1 °F 77% 29.69 in 10.0 mi SSE 17.3 mph 26.5 mph N/A   Clear